Location: Newark
(0.5300°S, 127.4800°E)
Time: 22:33:36
(UTC+00:00)

Courier 1B Rocket - Visible Passes

Search period start: 22 September 2019 00:00
Search period end: 02 October 2019 00:00
Orbit: 920 x 1202 km, 28.2° (Epoch: 22 September)

Date Brightness Start Highest point End Pass type
(mag) Time Alt. Az. Time Alt. Az. Time Alt. Az.
22 Sep 7.1 11:32:02 10° NNW 11:33:19 13° N 11:33:19 13° N visible
23 Sep 7.0 10:32:38 10° N 10:34:28 11° NNE 10:36:12 10° NE visible
24 Sep 6.6 11:22:09 10° NNW 11:25:31 22° N 11:25:31 22° N visible
25 Sep 6.6 10:21:49 10° NNW 10:26:11 18° NNE 10:28:30 15° NE visible
25 Sep 7.2 12:13:35 10° NW 12:14:53 16° NW 12:14:53 16° NW visible
26 Sep 5.8 11:12:42 10° NW 11:17:57 37° N 11:17:57 37° N visible
26 Sep 7.5 20:50:34 10° S 20:52:50 12° SSE 20:55:09 10° SE visible
27 Sep 6.2 10:11:59 10° NNW 10:17:46 27° NNE 10:21:04 19° ENE visible
27 Sep 6.7 12:04:43 10° WNW 12:07:28 26° WNW 12:07:28 26° WNW visible
28 Sep 5.0 11:03:32 10° NW 11:10:24 63° NNE 11:10:39 63° NE visible
28 Sep 7.3 20:40:17 10° SSW 20:44:29 17° SSE 20:48:51 10° ESE visible
29 Sep 5.7 10:02:32 10° NW 10:09:14 42° NNE 10:13:54 18° E visible
29 Sep 6.3 11:56:10 10° WNW 12:00:18 36° W 12:00:18 36° W visible
29 Sep 7.4 19:41:23 10° S 19:43:03 11° SSE 19:44:43 10° SE visible
30 Sep 5.0 10:54:39 10° WNW 11:01:43 83° SSW 11:03:36 51° SE visible
30 Sep 6.9 20:30:42 10° SSW 20:36:00 25° SSE 20:41:34 10° E visible
01 Oct 5.2 09:53:22 10° NW 10:00:35 66° NNE 10:06:56 12° ESE visible
01 Oct 6.3 11:47:57 10° W 11:53:20 34° SW 11:53:20 34° SW visible
01 Oct 7.2 19:30:49 10° SSW 19:34:43 16° SSE 19:38:44 10° ESE visible
